Regional Weather Roundup
Issued by NWS

Home | Current Version | Previous Version | Text Only | Print | Product List | Glossary On
Versions: 1 2 3 4 5 6 7 8 9 10 11 12 13 14 15 16 17 18 19 20 21 22 23 24 25 26 27 28 29 30 31 32 33 34 35 36 37 38 39 40 41 42 43 44 45 46 47 48 49 50
000
ASUS43 KLSX 161457
RWRMO

WEATHER SUMMARY FOR MISSOURI
NATIONAL WEATHER SERVICE SPRINGFIELD MO
900 AM CST TUE JAN 16 2018

NOTE: "FAIR" INDICATES FEW OR NO CLOUDS BELOW 12,000 FEET WITH NO
       SIGNIFICANT WEATHER AND/OR OBSTRUCTIONS TO VISIBILITY.
       CURRENT SKY AND/OR WEATHER CONDITIONS ARE NOT AVAILABLE FOR
       CHILLICOTHE AND FARMINGTON.

MOZ001>031-035>038-043-044-053-054-161600-
...NORTHERN AND WESTERN MISSOURI...

CITY           SKY/WX    TMP DP  RH WIND       PRES   REMARKS
KANSAS CTY INT LGT SNOW  -2  -8  76 NW10      30.73R WCI -19
LEE`S SUMMIT   CLOUDY    -1  -7  75 NW14      30.73R WCI -20
ST JOSEPH        N/A    N/A N/A N/A MISG      30.77R
CHILLICOTHE      N/A      0  -8  69 NW10G17   30.73R WCI -16

$$
MOZ066>068-077>081-088>096-101>105-161600-
...SOUTHWEST MISSOURI...

CITY           SKY/WX    TMP DP  RH WIND       PRES   REMARKS
SPRINGFIELD    CLOUDY    -2 -10  69 NW8       30.69R WCI -17
JOPLIN         CLOUDY    -2  -9  72 NW9       30.78R WCI -18
BRANSON        MOSUNNY    0  -9  65 NW9G18    30.71R WCI -16

$$
MOZ032>034-039>042-045>050-055>058-069>072-161600-
...CENTRAL MISSOURI...

CITY           SKY/WX    TMP DP  RH WIND       PRES   REMARKS
COLUMBIA       NOT AVBL
JEFFERSON CITY PTSUNNY   -1  -9  68 NW13      30.75R WCI -19
ROLLA          SUNNY     -3  -9  75 NW14      30.66R WCI -22
SEDALIA        MOSUNNY   -1  -8  72 NW10      30.72R WCI -17
WARRENSBURG    PTSUNNY    0  -9  65 NW6       30.75R WCI -12
OSAGE BEACH    MOSUNNY    1  -8  66 NW9       30.73R WCI -14

$$
MOZ051-052-059>065-161600-
...EAST CENTRAL MISSOURI...

CITY           SKY/WX    TMP DP  RH WIND       PRES   REMARKS
ST LOUIS INTL  FLURRIES   1  -6  72 NW15      30.67R WCI -18

$$
MOZ072>076-082>087-097>100-106>115-161600-
...SOUTH CENTRAL AND SOUTHEAST MISSOURI...

CITY           SKY/WX    TMP DP  RH WIND       PRES   REMARKS
CAPE GIRARDEAU FAIR       6  -3  66 W10       30.70R WCI  -9
POPLAR BLUFF   FAIR      13  -5  44 NW9       30.72R WCI   1
WEST PLAINS    SUNNY      1  -8  66 NW10G18   30.67R WCI -15

$$



USA.gov is the U.S. government's official web portal to all federal, state and local government web resources and services.